Location: Eaton Estates
(41.3089°N, 82.0057°W)
Time: 08:31:47
(UTC+00:00)

Cosmos 2123 Rocket - Pass Details

Date: 17 June 2021
Orbit: 961 x 992 km, 82.9° (Epoch: 27 July)

Event Time Altitude Azimuth Distance (km) Brightness Sun altitude
Exits shadow 02:48:02 22° 147° (SSE) 1,998 5.0 -15.3°
Maximum altitude 02:51:39 43° 89° (E) 1,358 4.5 -15.7°
Drops below altitude 10° 02:57:33 10° 21° (NNE) 2,761 6.8 -16.4°
Sets 03:00:12 0° 15° (NNE) 3,715 7.6 -16.7°
